"read_dt","SO2 (ppb)","flags","PMT voltage (V)","lamp voltage (V)","lamp intensity (Hz)","internal temp (C)","react chamber temp (C)","sample flow (l/min)","pres (mmHg)","SO2 bkg (ppb)","SO2 coefficient"
2014-09-30 00:00:00,1985E-3,5C000000,-0724,0827,12154,028.1,045.5,0.477,736.5,01.18,0.508
2014-09-30 00:01:00,2074E-3,5C000000,-0724,0826,12378,028.1,045.5,0.477,736.5,01.18,0.508
2014-09-30 00:02:00,1800E-3,5C000000,-0724,0827,12267,028.1,045.5,0.477,736.5,01.18,0.508
2014-09-30 00:03:00,1880E-3,5C000000,-0724,0826,12140,028.1,045.5,0.477,736.5,01.18,0.508
2014-09-30 00:04:00,2007E-3,5C000000,-0724,0827,12266,028.2,045.5,0.477,736.4,01.18,0.508
2014-09-30 00:05:00,1876E-3,5C000000,-0724,0827,11638,028.2,045.5,0.477,736.4,01.18,0.508
2014-09-30 00:06:00,2027E-3,5C000000,-0724,0827,12089,028.3,045.5,0.477,736.4,01.18,0.508
2014-09-30 00:07:00,2064E-3,5C000000,-0724,0826,12301,028.4,045.5,0.476,736.4,01.18,0.508
2014-09-30 00:08:00,2012E-3,5C000000,-0724,0827,12288,028.4,045.5,0.476,736.4,01.18,0.508
2014-09-30 00:09:00,1992E-3,5C000000,-0724,0827,12273,028.5,045.5,0.477,736.4,01.18,0.508
2014-09-30 00:10:00,1995E-3,5C000000,-0724,0827,12146,028.5,045.5,0.477,736.4,01.18,0.508
2014-09-30 00:11:00,2064E-3,5C000000,-0724,0827,12193,028.5,045.5,0.476,736.4,01.18,0.508
2014-09-30 00:12:00,1946E-3,5C000000,-0724,0827,12282,028.6,045.5,0.476,736.5,01.18,0.508
2014-09-30 00:13:00,2038E-3,5C000000,-0724,0827,12288,028.6,045.5,0.476,736.5,01.18,0.508
2014-09-30 00:14:00,2022E-3,5C000000,-0724,0827,12299,028.7,045.5,0.476,736.4,01.18,0.508
2014-09-30 00:15:00,2008E-3,5C000000,-0724,0827,12162,028.7,045.5,0.476,736.5,01.18,0.508
2014-09-30 00:16:00,2062E-3,5C000000,-0724,0827,12276,028.7,045.5,0.476,736.5,01.18,0.508
2014-09-30 00:17:00,1842E-3,5C000000,-0724,0827,12275,028.8,045.5,0.476,736.5,01.18,0.508
2014-09-30 00:18:00,1918E-3,5C000000,-0724,0826,12273,028.8,045.5,0.476,736.5,01.18,0.508
2014-09-30 00:19:00,1899E-3,5C000000,-0724,0826,12114,028.8,045.5,0.475,736.4,01.18,0.508
2014-09-30 00:20:00,1932E-3,5C000000,-0724,0827,12219,028.9,045.5,0.476,736.5,01.18,0.508
2014-09-30 00:21:00,1940E-3,5C000000,-0724,0827,12054,028.9,045.5,0.475,736.4,01.18,0.508
2014-09-30 00:22:00,2058E-3,5C000000,-0724,0826,12253,028.9,045.5,0.476,736.5,01.18,0.508
2014-09-30 00:23:00,1935E-3,5C000000,-0724,0827,12290,028.9,045.5,0.475,736.5,01.18,0.508
2014-09-30 00:24:00,1872E-3,5C000000,-0724,0827,12166,029.0,045.5,0.476,736.5,01.18,0.508
2014-09-30 00:25:00,2194E-3,5C000000,-0724,0827,12305,029.0,045.5,0.475,736.5,01.18,0.508
2014-09-30 00:26:00,2001E-3,5C000000,-0724,0828,12297,029.0,045.5,0.476,736.5,01.18,0.508
2014-09-30 00:27:00,2022E-3,5C000000,-0724,0827,12242,029.1,045.5,0.475,736.5,01.18,0.508
2014-09-30 00:28:00,2073E-3,5C000000,-0724,0827,12156,029.1,045.5,0.475,736.5,01.18,0.508
2014-09-30 00:29:00,1984E-3,5C000000,-0724,0827,12202,029.1,045.5,0.475,736.5,01.18,0.508
2014-09-30 00:30:00,1882E-3,5C000000,-0724,0828,12228,029.1,045.5,0.475,736.5,01.18,0.508
2014-09-30 00:31:00,1990E-3,5C000000,-0724,0826,12293,029.1,045.5,0.475,736.5,01.18,0.508
2014-09-30 00:32:00,1939E-3,5C000000,-0724,0827,12225,029.2,045.5,0.475,736.4,01.18,0.508
2014-09-30 00:33:00,2024E-3,5C000000,-0724,0827,12144,029.2,045.5,0.475,736.5,01.18,0.508
2014-09-30 00:34:00,2035E-3,5C000000,-0724,0827,12126,029.2,045.5,0.475,736.3,01.18,0.508
2014-09-30 00:35:00,1817E-3,5C000000,-0724,0827,12246,029.2,045.5,0.475,736.3,01.18,0.508
2014-09-30 00:36:00,1954E-3,5C000000,-0724,0827,12204,029.2,045.5,0.475,736.3,01.18,0.508
2014-09-30 00:37:00,1991E-3,5C000000,-0724,0827,12124,029.3,045.5,0.475,736.3,01.18,0.508
2014-09-30 00:38:00,1996E-3,5C000000,-0724,0827,11858,029.3,045.5,0.475,736.3,01.18,0.508
2014-09-30 00:39:00,2013E-3,5C000000,-0724,0827,12288,029.3,045.5,0.474,736.4,01.18,0.508
2014-09-30 00:40:00,1992E-3,5C000000,-0724,0826,12303,029.4,045.5,0.475,736.4,01.18,0.508
2014-09-30 00:41:00,1954E-3,5C000000,-0724,0827,12174,029.4,045.5,0.475,736.4,01.18,0.508
2014-09-30 00:42:00,2032E-3,5C000000,-0724,0827,12261,029.4,045.5,0.475,736.4,01.18,0.508
2014-09-30 00:43:00,2132E-3,5C000000,-0724,0827,12241,029.4,045.5,0.475,736.4,01.18,0.508
2014-09-30 00:44:00,1948E-3,5C000000,-0724,0828,12104,029.4,045.5,0.474,736.4,01.18,0.508
2014-09-30 00:45:00,1931E-3,5C000000,-0724,0827,12194,029.4,045.5,0.474,736.4,01.18,0.508
2014-09-30 00:46:00,1939E-3,5C000000,-0724,0828,12408,029.4,045.5,0.475,736.4,01.18,0.508
2014-09-30 00:47:00,1916E-3,5C000000,-0724,0827,12179,029.4,045.5,0.474,736.4,01.18,0.508
2014-09-30 00:48:00,2041E-3,5C000000,-0724,0827,12257,029.4,045.5,0.474,736.4,01.18,0.508
2014-09-30 00:49:00,1885E-3,5C000000,-0724,0827,12233,029.5,045.5,0.475,736.3,01.18,0.508
2014-09-30 00:50:00,1987E-3,5C000000,-0724,0827,12023,029.5,045.5,0.475,736.4,01.18,0.508
2014-09-30 00:51:00,1905E-3,5C000000,-0724,0827,12110,029.5,045.5,0.474,736.4,01.18,0.508
2014-09-30 00:52:00,2030E-3,5C000000,-0724,0827,12250,029.5,045.5,0.474,736.4,01.18,0.508
2014-09-30 00:53:00,2058E-3,5C000000,-0724,0827,12275,029.5,045.5,0.475,736.4,01.18,0.508
2014-09-30 00:54:00,1902E-3,5C000000,-0724,0826,12227,029.5,045.5,0.474,736.4,01.18,0.508
2014-09-30 00:55:00,2052E-3,5C000000,-0724,0827,12233,029.6,045.5,0.474,736.4,01.18,0.508
2014-09-30 00:56:00,1973E-3,5C000000,-0724,0827,12107,029.6,045.5,0.474,736.4,01.18,0.508
2014-09-30 00:57:00,2171E-3,5C000000,-0724,0828,12166,029.6,045.5,0.474,736.5,01.18,0.508
2014-09-30 00:58:00,1975E-3,5C000000,-0724,0827,12327,029.6,045.5,0.474,736.6,01.18,0.508
2014-09-30 00:59:00,1958E-3,5C000000,-0724,0827,12126,029.6,045.6,0.474,736.6,01.18,0.508
2014-09-30 01:00:00,1938E-3,5C000000,-0724,0827,12246,029.6,045.5,0.474,736.4,01.18,0.508
2014-09-30 01:01:00,1996E-3,5C000000,-0724,0827,12242,029.6,045.6,0.474,736.4,01.18,0.508
2014-09-30 01:02:00,2014E-3,5C000000,-0724,0827,12085,029.7,045.6,0.474,736.4,01.18,0.508
2014-09-30 01:03:00,1999E-3,5C000000,-0724,0827,12221,029.7,045.5,0.474,736.4,01.18,0.508
2014-09-30 01:04:00,1998E-3,5C000000,-0724,0827,12278,029.8,045.5,0.474,736.4,01.18,0.508
2014-09-30 01:05:00,1912E-3,5C000000,-0724,0827,12302,029.8,045.5,0.474,736.5,01.18,0.508
2014-09-30 01:06:00,1992E-3,5C000000,-0724,0828,12263,029.9,045.5,0.474,736.5,01.18,0.508
2014-09-30 01:07:00,2055E-3,5C000000,-0724,0828,12342,029.9,045.6,0.474,736.5,01.18,0.508
2014-09-30 01:08:00,1875E-3,5C000000,-0724,0827,12046,029.9,045.6,0.474,736.4,01.18,0.508
2014-09-30 01:09:00,1835E-3,5C000000,-0724,0827,12082,029.9,045.6,0.474,736.4,01.18,0.508
2014-09-30 01:10:00,1963E-3,5C000000,-0724,0828,12258,029.9,045.6,0.474,736.4,01.18,0.508
2014-09-30 01:11:00,1993E-3,5C000000,-0724,0827,12241,029.6,045.5,0.475,736.5,01.18,0.508
2014-09-30 01:12:00,2037E-3,5C000000,-0724,0827,12329,029.4,045.5,0.475,736.5,01.18,0.508
2014-09-30 01:13:00,1923E-3,5C000000,-0724,0826,12183,029.4,045.5,0.474,736.5,01.18,0.508
2014-09-30 01:14:00,2096E-3,5C000000,-0724,0828,12171,029.5,045.5,0.475,736.5,01.18,0.508
2014-09-30 01:15:00,1966E-3,5C000000,-0724,0828,12272,029.5,045.5,0.474,736.4,01.18,0.508
2014-09-30 01:16:00,1897E-3,5C000000,-0724,0827,12349,029.5,045.5,0.475,736.9,01.18,0.508
2014-09-30 01:17:00,1915E-3,5C000000,-0724,0827,12283,029.5,045.5,0.474,736.9,01.18,0.508
2014-09-30 01:18:00,1790E-3,5C000000,-0724,0826,12275,029.5,045.5,0.475,736.9,01.18,0.508
2014-09-30 01:19:00,1779E-3,5C000000,-0724,0827,12325,029.5,045.5,0.474,736.9,01.18,0.508
2014-09-30 01:20:00,1729E-3,5C000000,-0724,0827,12204,029.6,045.5,0.475,737.1,01.18,0.508
2014-09-30 01:21:00,1776E-3,5C000000,-0724,0827,12115,029.5,045.5,0.474,737.0,01.18,0.508
2014-09-30 01:22:00,1757E-3,5C000000,-0724,0828,12202,029.5,045.5,0.475,736.8,01.18,0.508
2014-09-30 01:23:00,1928E-3,5C000000,-0724,0827,12354,029.5,045.5,0.474,736.8,01.18,0.508
2014-09-30 01:24:00,1993E-3,5C000000,-0724,0827,12192,029.5,045.5,0.475,736.8,01.18,0.508
2014-09-30 01:25:00,2050E-3,5C000000,-0724,0827,12146,029.5,045.5,0.474,736.8,01.18,0.508
2014-09-30 01:26:00,1885E-3,5C000000,-0724,0827,12203,029.6,045.5,0.474,736.8,01.18,0.508
2014-09-30 01:27:00,2055E-3,5C000000,-0724,0827,12150,029.6,045.5,0.474,736.8,01.18,0.508
2014-09-30 01:28:00,1975E-3,5C000000,-0724,0828,12161,029.6,045.5,0.474,736.8,01.18,0.508
2014-09-30 01:29:00,1932E-3,5C000000,-0724,0827,12270,029.6,045.5,0.474,736.8,01.18,0.508
2014-09-30 01:30:00,1922E-3,5C000000,-0724,0827,12294,029.6,045.5,0.474,736.8,01.18,0.508
2014-09-30 01:31:00,1900E-3,5C000000,-0724,0828,12335,029.6,045.5,0.474,736.9,01.18,0.508
2014-09-30 01:32:00,1933E-3,5C000000,-0724,0828,12221,029.6,045.5,0.474,736.9,01.18,0.508
2014-09-30 01:33:00,1856E-3,5C000000,-0724,0827,12371,029.6,045.5,0.474,736.9,01.18,0.508
2014-09-30 01:34:00,1964E-3,5C000000,-0724,0827,12227,029.6,045.5,0.474,736.9,01.18,0.508
2014-09-30 01:35:00,1997E-3,5C000000,-0724,0827,12238,029.6,045.5,0.474,736.9,01.18,0.508
2014-09-30 01:36:00,1859E-3,5C000000,-0724,0827,12065,029.6,045.5,0.474,736.9,01.18,0.508
2014-09-30 01:37:00,2006E-3,5C000000,-0724,0826,12332,029.6,045.5,0.474,736.9,01.18,0.508
2014-09-30 01:38:00,1996E-3,5C000000,-0724,0828,12224,029.7,045.5,0.474,736.9,01.18,0.508
2014-09-30 01:39:00,1868E-3,5C000000,-0724,0827,12246,029.7,045.5,0.474,736.9,01.18,0.508
2014-09-30 01:40:00,2049E-3,5C000000,-0724,0827,12075,029.7,045.5,0.474,736.9,01.18,0.508
2014-09-30 01:41:00,1985E-3,5C000000,-0724,0827,12256,029.7,045.5,0.474,736.9,01.18,0.508
2014-09-30 01:42:00,1903E-3,5C000000,-0724,0827,11999,029.7,045.5,0.474,736.9,01.18,0.508
2014-09-30 01:43:00,2083E-3,5C000000,-0724,0828,12167,029.7,045.5,0.474,736.9,01.18,0.508
2014-09-30 01:44:00,1964E-3,5C000000,-0724,0828,12199,029.8,045.5,0.474,736.9,01.18,0.508
2014-09-30 01:45:00,2018E-3,5C000000,-0724,0827,12307,029.8,045.5,0.473,736.9,01.18,0.508
2014-09-30 01:46:00,1953E-3,5C000000,-0724,0827,12221,029.8,045.5,0.474,736.9,01.18,0.508
2014-09-30 01:47:00,1912E-3,5C000000,-0724,0828,12318,029.8,045.5,0.474,736.9,01.18,0.508
2014-09-30 01:48:00,1963E-3,5C000000,-0724,0827,12210,029.8,045.5,0.473,736.9,01.18,0.508
2014-09-30 01:49:00,1927E-3,5C000000,-0724,0827,12202,029.8,045.5,0.474,736.9,01.18,0.508
2014-09-30 01:50:00,1986E-3,5C000000,-0724,0826,12044,029.8,045.5,0.474,736.9,01.18,0.508
2014-09-30 01:51:00,2012E-3,5C000000,-0724,0828,12324,029.8,045.6,0.473,736.9,01.18,0.508
2014-09-30 01:52:00,1961E-3,5C000000,-0724,0827,12217,029.8,045.6,0.474,736.9,01.18,0.508
2014-09-30 01:53:00,2000E-3,5C000000,-0724,0827,12297,029.8,045.5,0.474,736.9,01.18,0.508
2014-09-30 01:54:00,1924E-3,5C000000,-0724,0828,12148,029.9,045.5,0.473,736.9,01.18,0.508
2014-09-30 01:55:00,1993E-3,5C000000,-0724,0827,12185,029.8,045.6,0.474,736.9,01.18,0.508
2014-09-30 01:56:00,1815E-3,5C000000,-0724,0827,12173,029.8,045.5,0.474,736.9,01.18,0.508
2014-09-30 01:57:00,1896E-3,5C000000,-0724,0827,11993,029.9,045.5,0.474,736.9,01.18,0.508
2014-09-30 01:58:00,1962E-3,5C000000,-0724,0827,12368,029.9,045.5,0.473,736.9,01.18,0.508
2014-09-30 01:59:00,1946E-3,5C000000,-0724,0827,12324,029.9,045.5,0.474,736.9,01.18,0.508
2014-09-30 02:00:00,2105E-3,5C000000,-0724,0827,12067,029.9,045.5,0.474,736.9,01.18,0.508
2014-09-30 02:01:00,2004E-3,5C000000,-0724,0827,12234,029.9,045.5,0.474,736.9,01.18,0.508
2014-09-30 02:02:00,1908E-3,5C000000,-0724,0828,12322,029.9,045.5,0.473,736.9,01.18,0.508
2014-09-30 02:03:00,1919E-3,5C000000,-0724,0826,12323,029.9,045.5,0.473,736.9,01.18,0.508
2014-09-30 02:04:00,1894E-3,5C000000,-0724,0827,12113,029.9,045.5,0.474,736.9,01.18,0.508
2014-09-30 02:05:00,1888E-3,5C000000,-0724,0826,12211,030.0,045.5,0.474,736.9,01.18,0.508
2014-09-30 02:06:00,1897E-3,5C000000,-0724,0827,12268,030.0,045.5,0.473,736.9,01.18,0.508
2014-09-30 02:07:00,1915E-3,5C000000,-0724,0828,12247,030.0,045.5,0.473,736.9,01.18,0.508
2014-09-30 02:08:00,1971E-3,5C000000,-0724,0828,12319,030.0,045.5,0.473,736.9,01.18,0.508
2014-09-30 02:09:00,2065E-3,5C000000,-0724,0827,12182,030.0,045.5,0.473,736.9,01.18,0.508
2014-09-30 02:10:00,1982E-3,5C000000,-0724,0827,12323,030.0,045.5,0.474,736.9,01.18,0.508
2014-09-30 02:11:00,1825E-3,5C000000,-0724,0827,12228,030.0,045.6,0.474,736.9,01.18,0.508
2014-09-30 02:12:00,1936E-3,5C000000,-0724,0826,12228,030.1,045.5,0.473,736.9,01.18,0.508
2014-09-30 02:13:00,1882E-3,5C000000,-0724,0827,12262,030.0,045.5,0.473,736.9,01.18,0.508
2014-09-30 02:14:00,1948E-3,5C000000,-0724,0826,12207,030.0,045.5,0.473,736.8,01.18,0.508
2014-09-30 02:15:00,2083E-3,5C000000,-0724,0827,12037,030.1,045.5,0.473,736.9,01.18,0.508
2014-09-30 02:16:00,1984E-3,5C000000,-0724,0827,12249,030.0,045.5,0.474,736.9,01.18,0.508
2014-09-30 02:17:00,2017E-3,5C000000,-0724,0828,12279,030.1,045.5,0.473,736.9,01.18,0.508
2014-09-30 02:18:00,1945E-3,5C000000,-0724,0827,12270,030.1,045.5,0.473,736.9,01.18,0.508
2014-09-30 02:19:00,2073E-3,5C000000,-0724,0826,12212,030.1,045.5,0.473,736.8,01.18,0.508
2014-09-30 02:20:00,2000E-3,5C000000,-0724,0827,12315,030.1,045.5,0.473,736.9,01.18,0.508
2014-09-30 02:21:00,1990E-3,5C000000,-0724,0827,12069,030.1,045.5,0.473,736.9,01.18,0.508
2014-09-30 02:22:00,1882E-3,5C000000,-0724,0827,12184,030.1,045.5,0.473,736.9,01.18,0.508
2014-09-30 02:23:00,2025E-3,5C000000,-0724,0827,12281,030.1,045.5,0.473,736.9,01.18,0.508
2014-09-30 02:24:00,1891E-3,5C000000,-0724,0826,12279,030.2,045.5,0.473,736.9,01.18,0.508
2014-09-30 02:25:00,1969E-3,5C000000,-0724,0827,12217,030.2,045.5,0.473,736.9,01.18,0.508
2014-09-30 02:26:00,1974E-3,5C000000,-0724,0827,12293,030.2,045.5,0.473,736.9,01.18,0.508
2014-09-30 02:27:00,1872E-3,5C000000,-0724,0827,12242,030.2,045.5,0.473,736.9,01.18,0.508
2014-09-30 02:28:00,1902E-3,5C000000,-0724,0828,12304,030.2,045.6,0.473,736.9,01.18,0.508
2014-09-30 02:29:00,2016E-3,5C000000,-0724,0827,12181,030.2,045.5,0.473,736.9,01.18,0.508
2014-09-30 02:30:00,1918E-3,5C000000,-0724,0828,12377,030.2,045.5,0.473,736.9,01.18,0.508
2014-09-30 02:31:00,2018E-3,5C000000,-0724,0827,12153,030.2,045.5,0.473,736.8,01.18,0.508
2014-09-30 02:32:00,1814E-3,5C000000,-0724,0827,12055,030.2,045.5,0.473,736.8,01.18,0.508
2014-09-30 02:33:00,1966E-3,5C000000,-0724,0826,12350,030.2,045.5,0.473,736.9,01.18,0.508
2014-09-30 02:34:00,2032E-3,5C000000,-0724,0827,12233,030.2,045.5,0.473,736.9,01.18,0.508
2014-09-30 02:35:00,1935E-3,5C000000,-0724,0828,12268,030.2,045.5,0.473,736.9,01.18,0.508
2014-09-30 02:36:00,2038E-3,5C000000,-0724,0827,12277,030.2,045.5,0.473,736.8,01.18,0.508
2014-09-30 02:37:00,1967E-3,5C000000,-0724,0827,12311,030.2,045.5,0.473,736.8,01.18,0.508
2014-09-30 02:38:00,2021E-3,5C000000,-0724,0827,12255,030.3,045.5,0.473,736.8,01.18,0.508
2014-09-30 02:39:00,2048E-3,5C000000,-0724,0827,12057,030.3,045.5,0.473,736.8,01.18,0.508
2014-09-30 02:40:00,1935E-3,5C000000,-0724,0827,12010,030.3,045.5,0.473,736.9,01.18,0.508
2014-09-30 02:41:00,1945E-3,5C000000,-0724,0828,12181,030.3,045.5,0.473,736.9,01.18,0.508
2014-09-30 02:42:00,2048E-3,5C000000,-0724,0828,12278,030.3,045.5,0.472,736.9,01.18,0.508
2014-09-30 02:43:00,1954E-3,5C000000,-0724,0827,12439,030.3,045.6,0.472,736.9,01.18,0.508
2014-09-30 02:44:00,2003E-3,5C000000,-0724,0827,12270,030.3,045.6,0.472,736.8,01.18,0.508
2014-09-30 02:45:00,1775E-3,5C000000,-0724,0827,12207,030.3,045.6,0.472,736.9,01.18,0.508
2014-09-30 02:46:00,1938E-3,5C000000,-0724,0828,12281,030.3,045.5,0.472,736.9,01.18,0.508
2014-09-30 02:47:00,2031E-3,5C000000,-0724,0827,12242,030.3,045.5,0.472,736.9,01.18,0.508
2014-09-30 02:48:00,2000E-3,5C000000,-0724,0827,12242,030.3,045.5,0.472,736.9,01.18,0.508
2014-09-30 02:49:00,2037E-3,5C000000,-0724,0827,12196,030.3,045.6,0.472,736.9,01.18,0.508
2014-09-30 02:50:00,1870E-3,5C000000,-0724,0827,12252,030.4,045.5,0.472,736.9,01.18,0.508
2014-09-30 02:51:00,2123E-3,5C000000,-0724,0828,12243,030.4,045.6,0.472,736.9,01.18,0.508
2014-09-30 02:52:00,1847E-3,5C000000,-0724,0827,12251,030.4,045.6,0.472,736.9,01.18,0.508
2014-09-30 02:53:00,2070E-3,5C000000,-0724,0827,12141,030.4,045.6,0.472,736.9,01.18,0.508
2014-09-30 02:54:00,1952E-3,5C000000,-0724,0828,12230,030.4,045.5,0.472,736.9,01.18,0.508
2014-09-30 02:55:00,1958E-3,5C000000,-0724,0827,12253,030.4,045.5,0.472,736.8,01.18,0.508
2014-09-30 02:56:00,2024E-3,5C000000,-0724,0827,12127,030.4,045.5,0.472,736.8,01.18,0.508
2014-09-30 02:57:00,1971E-3,5C000000,-0724,0828,12326,030.4,045.5,0.472,736.8,01.18,0.508
2014-09-30 02:58:00,1927E-3,5C000000,-0724,0827,12329,030.4,045.6,0.472,736.8,01.18,0.508
2014-09-30 02:59:00,1962E-3,5C000000,-0724,0828,12096,030.4,045.6,0.472,736.8,01.18,0.508
2014-09-30 03:00:00,1951E-3,5C000000,-0724,0828,12140,030.4,045.5,0.472,736.7,01.18,0.508
2014-09-30 03:01:00,1884E-3,5C000000,-0724,0827,12224,030.5,045.6,0.473,736.7,01.18,0.508
2014-09-30 03:02:00,1975E-3,5C000000,-0724,0827,12362,030.5,045.6,0.473,736.8,01.18,0.508
2014-09-30 03:03:00,1939E-3,5C000000,-0724,0827,12183,030.5,045.5,0.473,736.8,01.18,0.508
2014-09-30 03:04:00,1904E-3,5C000000,-0724,0827,12211,030.5,045.5,0.473,736.7,01.18,0.508
2014-09-30 03:05:00,1901E-3,5C000000,-0724,0827,12244,030.5,045.6,0.473,736.7,01.18,0.508
2014-09-30 03:06:00,2078E-3,5C000000,-0724,0827,12158,030.5,045.6,0.473,736.8,01.18,0.508
2014-09-30 03:07:00,2011E-3,5C000000,-0724,0826,12035,030.4,045.6,0.473,736.7,01.18,0.508
2014-09-30 03:08:00,1896E-3,5C000000,-0724,0828,12288,030.4,045.6,0.473,736.7,01.18,0.508
2014-09-30 03:09:00,1955E-3,5C000000,-0724,0828,12157,030.5,045.5,0.473,736.7,01.18,0.508
2014-09-30 03:10:00,1992E-3,5C000000,-0724,0827,12301,030.5,045.5,0.473,736.8,01.18,0.508
2014-09-30 03:11:00,1945E-3,5C000000,-0724,0828,12180,030.5,045.6,0.473,736.8,01.18,0.508
2014-09-30 03:12:00,1937E-3,5C000000,-0724,0826,12231,030.5,045.5,0.473,736.8,01.18,0.508
2014-09-30 03:13:00,2084E-3,5C000000,-0724,0828,12252,030.5,045.5,0.473,736.8,01.18,0.508
2014-09-30 03:14:00,2006E-3,5C000000,-0724,0827,12433,030.5,045.6,0.473,736.8,01.18,0.508
2014-09-30 03:15:00,1987E-3,5C000000,-0724,0828,12169,030.5,045.5,0.473,736.8,01.18,0.508
2014-09-30 03:16:00,1796E-3,5C000000,-0724,0826,12309,030.6,045.6,0.472,736.8,01.18,0.508
2014-09-30 03:17:00,1983E-3,5C000000,-0724,0827,12287,030.6,045.5,0.472,736.7,01.18,0.508
2014-09-30 03:18:00,2046E-3,5C000000,-0724,0827,12304,030.6,045.6,0.472,736.7,01.18,0.508
2014-09-30 03:19:00,2022E-3,5C000000,-0724,0827,12293,030.6,045.6,0.472,736.7,01.18,0.508
2014-09-30 03:20:00,2043E-3,5C000000,-0724,0827,12226,030.6,045.5,0.472,736.8,01.18,0.508
2014-09-30 03:21:00,1873E-3,5C000000,-0724,0828,12340,030.6,045.6,0.472,736.8,01.18,0.508
2014-09-30 03:22:00,1801E-3,5C000000,-0724,0828,12200,030.6,045.5,0.472,736.8,01.18,0.508
2014-09-30 03:23:00,1865E-3,5C000000,-0724,0827,12107,030.6,045.5,0.472,736.8,01.18,0.508
2014-09-30 03:24:00,1974E-3,5C000000,-0724,0827,12207,030.6,045.5,0.472,736.8,01.18,0.508
2014-09-30 03:25:00,1956E-3,5C000000,-0724,0827,12274,030.6,045.6,0.473,736.8,01.18,0.508
2014-09-30 03:26:00,1975E-3,5C000000,-0724,0827,12130,030.6,045.6,0.473,736.8,01.18,0.508
2014-09-30 03:27:00,1920E-3,5C000000,-0724,0827,12360,030.6,045.5,0.473,736.9,01.18,0.508
2014-09-30 03:28:00,1912E-3,5C000000,-0724,0827,12342,030.6,045.6,0.473,736.8,01.18,0.508
2014-09-30 03:29:00,1862E-3,5C000000,-0724,0827,12193,030.6,045.6,0.473,736.8,01.18,0.508
2014-09-30 03:30:00,2020E-3,5C000000,-0724,0828,12039,030.6,045.6,0.472,736.8,01.18,0.508
2014-09-30 03:31:00,1907E-3,5C000000,-0724,0827,12304,030.7,045.5,0.472,736.9,01.18,0.508
2014-09-30 03:32:00,1849E-3,5C000000,-0724,0826,12112,030.6,045.5,0.472,736.8,01.18,0.508
2014-09-30 03:33:00,1915E-3,5C000000,-0724,0828,12243,030.7,045.6,0.472,736.9,01.18,0.508
2014-09-30 03:34:00,1896E-3,5C000000,-0724,0827,12165,030.7,045.6,0.472,736.9,01.18,0.508
2014-09-30 03:35:00,1907E-3,5C000000,-0724,0827,12224,030.6,045.6,0.472,736.9,01.18,0.508
2014-09-30 03:36:00,2040E-3,5C000000,-0724,0826,12231,030.7,045.5,0.472,736.9,01.18,0.508
2014-09-30 03:37:00,1813E-3,5C000000,-0724,0827,12220,030.7,045.5,0.472,736.9,01.18,0.508
2014-09-30 03:38:00,1906E-3,5C000000,-0724,0827,12307,030.7,045.6,0.472,736.9,01.18,0.508
2014-09-30 03:39:00,1961E-3,5C000000,-0724,0827,12367,030.7,045.5,0.472,736.9,01.18,0.508
2014-09-30 03:40:00,2053E-3,5C000000,-0724,0827,12293,030.7,045.6,0.472,736.9,01.18,0.508
2014-09-30 03:41:00,2006E-3,5C000000,-0724,0827,12118,030.7,045.6,0.473,736.9,01.18,0.508
2014-09-30 03:42:00,1870E-3,5C000000,-0724,0827,12315,030.7,045.5,0.472,736.9,01.18,0.508
2014-09-30 03:43:00,1860E-3,5C000000,-0724,0827,12115,030.7,045.5,0.472,736.9,01.18,0.508
2014-09-30 03:44:00,1939E-3,5C000000,-0724,0827,12114,030.7,045.6,0.472,736.9,01.18,0.508
2014-09-30 03:45:00,1872E-3,5C000000,-0724,0828,12204,030.7,045.6,0.472,736.9,01.18,0.508
2014-09-30 03:46:00,1864E-3,5C000000,-0724,0827,12302,030.7,045.6,0.472,737.0,01.18,0.508
2014-09-30 03:47:00,1958E-3,5C000000,-0724,0827,12165,030.7,045.6,0.472,737.0,01.18,0.508
2014-09-30 03:48:00,1999E-3,5C000000,-0724,0826,12257,030.8,045.6,0.472,737.0,01.18,0.508
2014-09-30 03:49:00,1934E-3,5C000000,-0724,0827,12005,030.8,045.6,0.472,737.0,01.18,0.508
2014-09-30 03:50:00,1941E-3,5C000000,-0724,0827,12210,030.8,045.5,0.472,736.9,01.18,0.508
2014-09-30 03:51:00,1827E-3,5C000000,-0724,0827,12324,030.8,045.5,0.472,737.0,01.18,0.508
2014-09-30 03:52:00,1951E-3,5C000000,-0724,0827,12105,030.8,045.6,0.472,737.0,01.18,0.508
2014-09-30 03:53:00,1850E-3,5C000000,-0724,0826,12005,030.8,045.6,0.472,737.0,01.18,0.508
2014-09-30 03:54:00,1792E-3,5C000000,-0724,0827,12222,030.9,045.6,0.472,737.0,01.18,0.508
2014-09-30 03:55:00,1917E-3,5C000000,-0724,0828,12385,030.9,045.6,0.472,736.9,01.18,0.508
2014-09-30 03:56:00,1965E-3,5C000000,-0724,0828,12223,030.9,045.6,0.472,736.9,01.18,0.508
2014-09-30 03:57:00,1930E-3,5C000000,-0724,0827,12134,030.9,045.6,0.472,737.0,01.18,0.508
2014-09-30 03:58:00,1851E-3,5C000000,-0724,0827,12218,030.9,045.6,0.472,737.0,01.18,0.508
2014-09-30 03:59:00,1927E-3,5C000000,-0724,0827,12034,030.9,045.6,0.472,737.0,01.18,0.508
2014-09-30 04:00:00,2030E-3,5C000000,-0724,0827,12068,030.9,045.5,0.472,736.9,01.18,0.508
2014-09-30 04:01:00,1932E-3,5C000000,-0724,0828,12220,030.9,045.6,0.472,737.0,01.18,0.508
2014-09-30 04:02:00,2033E-3,5C000000,-0724,0828,12177,030.9,045.6,0.472,737.0,01.18,0.508
2014-09-30 04:03:00,2013E-3,5C000000,-0724,0827,12312,030.9,045.6,0.472,737.0,01.18,0.508
2014-09-30 04:04:00,1806E-3,5C000000,-0724,0827,12236,030.9,045.6,0.472,737.0,01.18,0.508
2014-09-30 04:05:00,1906E-3,5C000000,-0724,0827,12146,031.0,045.6,0.472,737.1,01.18,0.508
2014-09-30 04:06:00,1994E-3,5C000000,-0724,0827,12271,030.9,045.6,0.471,737.0,01.18,0.508
2014-09-30 04:07:00,1737E-3,5C000000,-0724,0826,12337,031.0,045.6,0.472,737.0,01.18,0.508
2014-09-30 04:08:00,2039E-3,5C000000,-0724,0827,12259,031.0,045.6,0.472,736.9,01.18,0.508
2014-09-30 04:09:00,1943E-3,5C000000,-0724,0827,12124,031.0,045.6,0.472,737.0,01.18,0.508
2014-09-30 04:10:00,1933E-3,5C000000,-0724,0827,12087,031.0,045.6,0.472,736.9,01.18,0.508
2014-09-30 04:11:00,1873E-3,5C000000,-0724,0828,12201,031.0,045.6,0.472,736.9,01.18,0.508
2014-09-30 04:12:00,1887E-3,5C000000,-0724,0827,12140,031.1,045.6,0.472,736.9,01.18,0.508
2014-09-30 04:13:00,1921E-3,5C000000,-0724,0827,12237,031.1,045.6,0.471,736.9,01.18,0.508
2014-09-30 04:14:00,2006E-3,5C000000,-0724,0827,12062,031.1,045.6,0.472,737.0,01.18,0.508
2014-09-30 04:15:00,1880E-3,5C000000,-0724,0827,12245,031.1,045.6,0.472,737.0,01.18,0.508
2014-09-30 04:16:00,1983E-3,5C000000,-0724,0828,12352,031.1,045.6,0.471,737.0,01.18,0.508
2014-09-30 04:17:00,1977E-3,5C000000,-0724,0827,12319,031.1,045.6,0.472,737.0,01.18,0.508
2014-09-30 04:18:00,1898E-3,5C000000,-0724,0826,12106,031.1,045.6,0.472,737.0,01.18,0.508
2014-09-30 04:19:00,2048E-3,5C000000,-0724,0827,12165,031.1,045.6,0.471,737.0,01.18,0.508
2014-09-30 04:20:00,2008E-3,5C000000,-0724,0827,12313,031.1,045.6,0.471,737.0,01.18,0.508